WB9PAR Weather Reports


Display with metric or nautical units.
time (UTC)temp
F
wind
direction
speed
MPH
gust
MPH
rain 1hr
in
rain 24hr
in
rain mn
in
humidity
%
barometer
mb
20260902170208 95 277 2.0 2.0 0.00 0.00 0.00 51 1048.4
20260902165708 95 258 2.0 2.0 0.00 0.00 0.00 52 1048.2
20260902165202 95 271 1.0 1.0 0.00 0.00 0.00 53 1048.5
20260902164657 95 287 2.0 3.0 0.00 0.00 0.00 53 1048.5
20260902164156 95 259 2.0 2.0 0.00 0.00 0.00 52 1048.8
20260902163651 95 269 2.0 3.0 0.00 0.00 0.00 51 1048.8
20260902163151 95 277 0.0 1.0 0.00 0.00 0.00 53 1048.6
20260902162650 95 285 1.0 1.0 0.00 0.00 0.00 53 1048.6
20260902162144 95 263 0.0 0.0 0.00 0.00 0.00 56 1048.8
20260902161639 94 271 1.0 1.0 0.00 0.00 0.00 53 1048.7
20260902161135 93 284 1.0 1.0 0.00 0.00 0.00 54 1048.9
20260902160632 94 201 4.0 6.0 0.00 0.00 0.00 50 1048.9
20260902160126 94 272 0.0 0.0 0.00 0.00 0.00 55 1048.9
20260902155625 94 256 1.0 1.0 0.00 0.00 0.00 54 1048.7
20260902155124 94 272 0.0 0.0 0.00 0.00 0.00 55 1048.7
20260902154619 94 272 0.0 1.0 0.00 0.00 0.00 58 1048.7
20260902154114 94 280 0.0 0.0 0.00 0.00 0.00 57 1048.9
20260902153613 93 270 2.0 2.0 0.00 0.00 0.00 56 1048.9
20260902153108 92 275 1.0 1.0 0.00 0.00 0.00 58 1048.9
20260902152604 92 248 2.0 3.0 0.00 0.00 0.00 57 1049.0
20260902152059 92 228 3.0 3.0 0.00 0.00 0.00 58 1048.9
20260902151555 91 285 1.0 1.0 0.00 0.00 0.00 60 1048.9
20260902151054 92 296 2.0 3.0 0.00 0.00 0.00 59 1049.0
20260902150550 92 317 2.0 2.0 0.00 0.00 0.00 59 1049.0
20260902150046 92 276 2.0 3.0 0.00 0.00 0.00 59 1048.9
20260902145540 91 268 1.0 1.0 0.00 0.00 0.00 61 1048.8
20260902145040 91 264 2.0 2.0 0.00 0.00 0.00 60 1049.2
20260902144537 90 237 2.0 2.0 0.00 0.00 0.00 60 1048.8
20260902144037 90 265 1.0 1.0 0.00 0.00 0.00 61 1048.9
20260902143537 90 268 1.0 1.0 0.00 0.00 0.00 62 1048.9
20260902143033 90 281 1.0 1.0 0.00 0.00 0.00 62 1049.1
20260902142529 90 262 1.0 1.0 0.00 0.00 0.00 62 1049.1
20260902142024 90 259 1.0 1.0 0.00 0.00 0.00 63 1049.0
20260902141524 89 274 1.0 1.0 0.00 0.00 0.00 64 1049.1
20260902141019 88 289 0.0 0.0 0.00 0.00 0.00 66 1049.2
20260902140514 88 288 0.0 0.0 0.00 0.00 0.00 66 1049.3
20260902140010 87 267 1.0 1.0 0.00 0.00 0.00 66 1049.2
20260902135503 87 273 1.0 2.0 0.00 0.00 0.00 67 1049.5
20260902135003 86 291 0.0 1.0 0.00 0.00 0.00 69 1049.3
20260902134500 86 275 1.0 1.0 0.00 0.00 0.00 71 1049.5
20260902134000 86 273 1.0 1.0 0.00 0.00 0.00 71 1049.5
20260902133454 85 254 0.0 0.0 0.00 0.00 0.00 73 1049.6
20260902132949 85 253 0.0 0.0 0.00 0.00 0.00 74 1049.3
20260902132444 84 257 0.0 0.0 0.00 0.00 0.00 76 1049.5
20260902131939 83 250 0.0 0.0 0.00 0.00 0.00 76 1049.4
20260902131436 83 285 1.0 1.0 0.00 0.00 0.00 75 1049.3
20260902130935 82 250 1.0 1.0 0.00 0.00 0.00 76 1049.3
20260902130432 82 249 0.0 0.0 0.00 0.00 0.00 77 1049.3
20260902125931 81 248 0.0 0.0 0.00 0.00 0.00 79 1049.5
20260902125428 80 239 0.0 0.0 0.00 0.00 0.00 80 1049.1
20260902124923 79 239 0.0 0.0 0.00 0.00 0.00 81 1049.2
20260902124419 78 246 1.0 1.0 0.00 0.00 0.00 83 1049.4
20260902123914 78 246 0.0 0.0 0.00 0.00 0.00 84 1049.3
20260902123411 77 247 0.0 0.0 0.00 0.00 0.00 85 1049.3
20260902122908 77 247 0.0 0.0 0.00 0.00 0.00 86 1049.4
20260902122405 77 247 0.0 0.0 0.00 0.00 0.00 86 1049.4
20260902121900 76 247 0.0 1.0 0.00 0.00 0.00 87 1049.3
20260902121355 76 250 0.0 0.0 0.00 0.00 0.00 87 1049.4
20260902120850 75 250 0.0 0.0 0.00 0.00 0.00 88 1049.3
20260902120347 75 250 0.0 0.0 0.00 0.00 0.00 89 1049.4
20260902115846 75 250 0.0 1.0 0.00 0.00 0.00 90 1049.3
20260902115342 74 250 0.0 0.0 0.00 0.00 0.00 91 1049.2
20260902114838 74 250 0.0 0.0 0.00 0.00 0.00 92 1049.2
20260902114334 73 250 0.0 0.0 0.00 0.00 0.00 93 1049.2
20260902113834 73 250 0.0 0.0 0.00 0.00 0.00 94 1049.1
20260902113330 73 250 0.0 0.0 0.00 0.00 0.00 95 1048.9
20260902112829 72 250 0.0 0.0 0.00 0.00 0.00 95 1049.0
20260902112326 72 251 0.0 0.0 0.00 0.00 0.00 95 1049.1
20260902111821 72 250 0.0 0.0 0.00 0.00 0.00 95 1048.8
20260902111317 72 250 0.0 0.0 0.00 0.00 0.00 95 1048.8
20260902110813 72 250 0.0 0.0 0.00 0.00 0.00 96 1048.9
20260902110308 72 250 0.0 0.0 0.00 0.00 0.00 96 1048.8
20260902105808 72 250 0.0 0.0 0.00 0.00 0.00 96 1048.9
20260902105306 72 250 0.0 0.0 0.00 0.00 0.00 96 1048.5
20260902104758 72 250 0.0 0.0 0.00 0.00 0.00 96 1048.6
20260902104255 72 250 0.0 0.0 0.00 0.00 0.00 96 1048.6
20260902103755 72 250 0.0 0.0 0.00 0.00 0.00 97 1048.6
20260902103254 72 250 0.0 0.0 0.00 0.00 0.00 97 1048.5
20260902102750 72 251 0.0 0.0 0.00 0.00 0.00 96 1048.7
20260902102247 72 251 0.0 0.0 0.00 0.00 0.00 96 1048.6
20260902101742 72 251 0.0 0.0 0.00 0.00 0.00 96 1048.3
20260902101237 72 251 0.0 0.0 0.00 0.00 0.00 96 1048.6
20260902100737 72 250 0.0 0.0 0.00 0.00 0.00 96 1048.3
20260902100231 73 250 0.0 0.0 0.00 0.00 0.00 96 1048.4
20260902095726 73 251 0.0 0.0 0.00 0.00 0.00 96 1048.2
20260902095226 73 250 0.0 0.0 0.00 0.00 0.00 95 1048.4
20260902094720 73 250 0.0 0.0 0.00 0.00 0.00 95 1048.4
20260902094217 73 250 0.0 0.0 0.00 0.00 0.00 96 1048.4
20260902093716 73 250 0.0 0.0 0.00 0.00 0.00 96 1048.2
20260902093212 73 251 0.0 0.0 0.00 0.00 0.00 96 1048.3
20260902092711 73 250 0.0 0.0 0.00 0.00 0.00 96 1048.2
20260902092207 73 250 0.0 0.0 0.00 0.00 0.00 95 1048.2
20260902091706 73 250 0.0 0.0 0.00 0.00 0.00 95 1048.1
20260902091203 73 251 0.0 0.0 0.00 0.00 0.00 95 1048.3
20260902090659 73 250 0.0 0.0 0.00 0.00 0.00 95 1048.0
20260902090158 73 250 0.0 0.0 0.00 0.00 0.00 95 1048.2
20260902085658 73 250 0.0 0.0 0.00 0.00 0.00 94 1048.2
20260902085153 73 250 0.0 0.0 0.00 0.00 0.00 94 1048.1
20260902084649 73 250 0.0 0.0 0.00 0.00 0.00 94 1048.2
20260902084144 73 250 0.0 0.0 0.00 0.00 0.00 94 1048.2
20260902083640 74 251 0.0 0.0 0.00 0.00 0.00 94 1048.1
20260902083138 74 250 0.0 0.0 0.00 0.00 0.00 94 1047.9
20260902082634 74 251 0.0 0.0 0.00 0.00 0.00 93 1047.8
20260902082132 74 251 0.0 0.0 0.00 0.00 0.00 93 1048.0
20260902081628 74 251 0.0 0.0 0.00 0.00 0.00 93 1047.9
20260902081128 74 250 0.0 0.0 0.00 0.00 0.00 92 1047.8
20260902080623 75 250 0.0 0.0 0.00 0.00 0.00 92 1047.9
20260902080120 75 250 0.0 0.0 0.00 0.00 0.00 92 1047.9
20260902075619 75 250 0.0 0.0 0.00 0.00 0.00 92 1047.9
20260902075115 75 250 0.0 0.0 0.00 0.00 0.00 92 1047.8
20260902074610 75 250 0.0 0.0 0.00 0.00 0.00 92 1047.9
20260902074105 75 250 0.0 0.0 0.00 0.00 0.00 92 1047.8
20260902073601 75 250 0.0 0.0 0.00 0.00 0.00 92 1047.7
20260902073057 75 250 0.0 0.0 0.00 0.00 0.00 93 1047.8
20260902072553 75 250 0.0 0.0 0.00 0.00 0.00 93 1047.7
20260902072049 75 250 0.0 0.0 0.00 0.00 0.00 93 1047.7
20260902071548 75 250 0.0 0.0 0.00 0.00 0.00 93 1048.0
20260902071045 75 251 0.0 0.0 0.00 0.00 0.00 93 1047.8
20260902070540 75 251 0.0 0.0 0.00 0.00 0.00 92 1047.8
20260902070036 75 250 0.0 0.0 0.00 0.00 0.00 92 1047.9
20260902065534 75 251 0.0 0.0 0.00 0.00 0.00 92 1047.9
20260902065030 75 250 0.0 0.0 0.00 0.00 0.00 92 1047.8
20260902064526 76 250 0.0 0.0 0.00 0.00 0.00 91 1047.8
20260902064021 76 250 0.0 0.0 0.00 0.00 0.00 90 1047.7
20260902063521 76 250 0.0 0.0 0.00 0.00 0.00 90 1047.8
20260902063016 76 250 0.0 0.0 0.00 0.00 0.00 90 1047.9
20260902062514 76 250 0.0 0.0 0.00 0.00 0.00 91 1048.0
20260902062011 76 250 0.0 0.0 0.00 0.00 0.00 92 1048.0
20260902061510 76 250 0.0 0.0 0.00 0.00 0.00 92 1048.1
20260902061006 76 250 0.0 0.0 0.00 0.00 0.00 92 1048.1
20260902060503 76 250 0.0 0.0 0.00 0.00 0.00 91 1048.0
20260902055958 76 250 0.0 0.0 0.00 0.00 0.00 91 1048.0
20260902055454 77 250 0.0 0.0 0.00 0.00 0.00 90 1048.0
20260902054950 77 250 0.0 0.0 0.00 0.00 0.00 89 1048.1
20260902054449 77 250 0.0 0.0 0.00 0.00 0.00 90 1048.0
20260902053945 77 250 0.0 0.0 0.00 0.00 0.00 89 1047.9
20260902053440 77 250 0.0 0.0 0.00 0.00 0.00 89 1047.8
20260902052939 77 250 0.0 0.0 0.00 0.00 0.00 89 1047.8
20260902052434 77 250 0.0 0.0 0.00 0.00 0.00 90 1047.9
20260902051930 77 250 0.0 0.0 0.00 0.00 0.00 90 1048.0
20260902051425 77 250 0.0 0.0 0.00 0.00 0.00 90 1048.0
20260902050924 77 250 0.0 0.0 0.00 0.00 0.00 89 1048.0
20260902050423 77 250 0.0 0.0 0.00 0.00 0.00 89 1047.9
20260902045919 78 250 0.0 0.0 0.00 0.00 0.00 89 1047.9
20260902045414 78 250 0.0 0.0 0.00 0.00 0.00 89 1048.0
20260902044910 78 250 0.0 0.0 0.00 0.00 0.00 88 1048.0
20260902044405 78 250 0.0 0.0 0.00 0.00 0.00 88 1048.1
20260902043900 78 250 0.0 0.0 0.00 0.00 0.00 87 1047.7
20260902043356 78 250 0.0 0.0 0.00 0.00 0.00 87 1047.9
20260902042851 78 250 0.0 0.0 0.00 0.00 0.00 87 1047.9
20260902042350 79 250 0.0 0.0 0.00 0.00 0.00 86 1048.1
20260902041846 79 250 0.0 0.0 0.00 0.00 0.00 86 1048.1
20260902041345 79 250 0.0 0.0 0.00 0.00 0.00 86 1048.0
20260902040844 79 250 0.0 0.0 0.00 0.00 0.00 85 1047.9
20260902040340 79 250 0.0 0.0 0.00 0.00 0.00 85 1048.1
20260902035838 79 250 0.0 0.0 0.00 0.00 0.00 85 1047.9
20260902035334 79 250 0.0 0.0 0.00 0.00 0.00 84 1047.9
20260902034833 79 250 0.0 0.0 0.00 0.00 0.00 83 1047.9
20260902034328 80 250 0.0 0.0 0.00 0.00 0.00 83 1048.0
20260902033826 80 250 0.0 0.0 0.00 0.00 0.00 83 1048.0
20260902033322 80 250 0.0 0.0 0.00 0.00 0.00 82 1047.9
20260902032821 80 250 0.0 0.0 0.00 0.00 0.00 82 1048.0
20260902032315 80 250 0.0 0.0 0.00 0.00 0.00 82 1048.1
20260902031815 80 250 0.0 0.0 0.00 0.00 0.00 82 1048.0
20260902031311 79 253 0.0 0.0 0.00 0.00 0.00 81 1048.0
20260902030807 79 253 0.0 0.0 0.00 0.00 0.00 81 1048.2
20260902030301 79 253 0.0 0.0 0.00 0.00 0.00 81 1047.9
20260902025801 80 253 0.0 0.0 0.00 0.00 0.00 80 1048.0
20260902025256 80 253 0.0 0.0 0.00 0.00 0.00 79 1047.9
20260902024750 80 253 0.0 0.0 0.00 0.00 0.00 79 1048.0
20260902024246 80 253 0.0 0.0 0.00 0.00 0.00 79 1048.1
20260902023742 80 253 0.0 0.0 0.00 0.00 0.00 78 1048.0
20260902023237 81 253 0.0 0.0 0.00 0.00 0.00 76 1048.1
20260902022736 81 253 0.0 0.0 0.00 0.00 0.00 75 1048.1
20260902022232 81 253 0.0 0.0 0.00 0.00 0.00 75 1048.1
20260902021727 81 253 0.0 0.0 0.00 0.00 0.00 74 1048.0
20260902021227 81 253 0.0 0.0 0.00 0.00 0.00 74 1047.9
20260902020723 82 253 0.0 0.0 0.00 0.00 0.00 73 1047.9
20260902020219 82 253 0.0 0.0 0.00 0.00 0.00 73 1047.7
20260902015714 82 253 0.0 0.0 0.00 0.00 0.00 73 1047.8
20260902015211 82 253 0.0 0.0 0.00 0.00 0.00 74 1047.7
20260902014706 82 253 0.0 0.0 0.00 0.00 0.00 73 1047.7
20260902014202 82 253 0.0 0.0 0.00 0.00 0.00 73 1047.8
20260902013701 83 253 0.0 0.0 0.00 0.00 0.00 71 1047.7
20260902013156 83 253 0.0 0.0 0.00 0.00 0.00 71 1047.6
20260902012652 83 253 0.0 0.0 0.00 0.00 0.00 71 1047.6
20260902012148 83 253 0.0 0.0 0.00 0.00 0.00 71 1047.4
20260902011643 84 253 0.0 0.0 0.00 0.00 0.00 69 1047.4
20260902011143 84 253 0.0 0.0 0.00 0.00 0.00 69 1047.4
20260902010642 85 253 0.0 0.0 0.00 0.00 0.00 68 1047.3
20260902010138 85 253 0.0 0.0 0.00 0.00 0.00 67 1047.2
20260902005636 86 253 0.0 0.0 0.00 0.00 0.00 66 1047.4
20260902005132 86 253 0.0 0.0 0.00 0.00 0.00 65 1047.2
20260902004631 86 253 0.0 0.0 0.00 0.00 0.00 65 1047.0
20260902004126 86 253 0.0 0.0 0.00 0.00 0.00 65 1047.3
20260902003622 86 254 0.0 0.0 0.00 0.00 0.00 64 1047.0
20260902003117 87 254 0.0 0.0 0.00 0.00 0.00 63 1047.2
20260902002613 87 254 0.0 0.0 0.00 0.00 0.00 62 1047.2
20260902002108 88 269 0.0 1.0 0.00 0.00 0.00 62 1047.2
20260902001602 88 254 0.0 1.0 0.00 0.00 0.00 61 1047.3
20260902001057 88 262 1.0 1.0 0.00 0.00 0.00 62 1047.3
20260902000552 89 257 0.0 0.0 0.00 0.00 0.00 62 1047.3
20260902000048 89 256 0.0 0.0 0.00 0.00 0.00 61 1047.4
20260901235547 89 292 0.0 0.0 0.00 0.00 0.00 61 1047.2
20260901235043 90 258 0.0 1.0 0.00 0.00 0.00 61 1047.4
20260901234542 90 236 1.0 1.0 0.00 0.00 0.00 59 1047.3
20260901234037 91 254 0.0 0.0 0.00 0.00 0.00 57 1047.3
20260901233537 91 254 0.0 1.0 0.00 0.00 0.00 56 1047.3
20260901233033 91 267 0.0 0.0 0.00 0.00 0.00 55 1047.3
20260901232528 92 258 0.0 0.0 0.00 0.00 0.00 54 1047.4
20260901232023 92 261 0.0 0.0 0.00 0.00 0.00 53 1047.3
20260901231520 92 280 0.0 0.0 0.00 0.00 0.00 53 1047.3
20260901231016 93 264 1.0 1.0 0.00 0.00 0.00 52 1047.3
20260901230515 93 262 1.0 2.0 0.00 0.00 0.00 52 1047.2
20260901230011 93 241 1.0 1.0 0.00 0.00 0.00 52 1047.2
20260901225506 93 208 2.0 3.0 0.00 0.00 0.00 52 1047.2
20260901225000 93 268 1.0 2.0 0.00 0.00 0.00 52 1047.0
20260901224456 93 257 1.0 1.0 0.00 0.00 0.00 51 1047.4
20260901223952 94 272 0.0 0.0 0.00 0.00 0.00 51 1047.0
20260901223448 94 261 1.0 1.0 0.00 0.00 0.00 51 1047.2
20260901222943 95 272 1.0 1.0 0.00 0.00 0.00 51 1047.2
20260901222439 95 254 1.0 1.0 0.00 0.00 0.00 49 1046.9
20260901221935 96 275 0.0 1.0 0.00 0.00 0.00 49 1046.9
20260901221431 96 263 1.0 3.0 0.00 0.00 0.00 48 1047.2
20260901220930 96 265 1.0 1.0 0.00 0.00 0.00 48 1047.3
20260901220429 96 257 2.0 3.0 0.00 0.00 0.00 48 1047.2
20260901215928 96 263 2.0 3.0 0.00 0.00 0.00 47 1046.8
20260901215427 96 281 0.0 0.0 0.00 0.00 0.00 48 1046.9
20260901214926 96 262 1.0 3.0 0.00 0.00 0.00 47 1046.9
20260901214425 96 297 1.0 1.0 0.00 0.00 0.00 48 1046.8
20260901213920 96 275 1.0 1.0 0.00 0.00 0.00 47 1046.9
20260901213415 95 298 1.0 1.0 0.00 0.00 0.00 49 1047.0
20260901212914 96 283 0.0 0.0 0.00 0.00 0.00 48 1047.3
20260901212409 98 253 2.0 2.0 0.00 0.00 0.00 47 1047.3
20260901211906 98 289 1.0 1.0 0.00 0.00 0.00 47 1047.4
20260901211401 98 244 2.0 3.0 0.00 0.00 0.00 45 1047.0
20260901210857 97 278 2.0 2.0 0.00 0.00 0.00 45 1047.2
20260901210352 98 286 2.0 2.0 0.00 0.00 0.00 46 1047.3
20260901205848 98 274 1.0 1.0 0.00 0.00 0.00 45 1047.3
20260901205343 98 286 1.0 1.0 0.00 0.00 0.00 45 1047.2
20260901204838 98 273 1.0 2.0 0.00 0.00 0.00 48 1047.3
20260901204335 98 275 1.0 1.0 0.00 0.00 0.00 46 1047.3
20260901203835 98 264 3.0 7.0 0.00 0.00 0.00 45 1047.2
20260901203334 98 296 1.0 1.0 0.00 0.00 0.00 44 1047.0
20260901202829 98 285 1.0 2.0 0.00 0.00 0.00 45 1047.2
20260901202324 98 265 2.0 4.0 0.00 0.00 0.00 45 1047.2
20260901201821 98 307 0.0 1.0 0.00 0.00 0.00 44 1047.2
20260901201320 98 288 1.0 1.0 0.00 0.00 0.00 44 1047.5
20260901200814 98 290 1.0 1.0 0.00 0.00 0.00 45 1047.5
20260901200309 98 275 1.0 1.0 0.00 0.00 0.00 44 1047.4
20260901195808 98 253 4.0 6.0 0.00 0.00 0.00 43 1047.2
20260901195301 99 286 2.0 3.0 0.00 0.00 0.00 43 1047.2
20260901194756 98 282 2.0 4.0 0.00 0.00 0.00 45 1047.3
20260901194251 98 248 3.0 3.0 0.00 0.00 0.00 44 1047.2
20260901193748 98 236 1.0 1.0 0.00 0.00 0.00 47 1047.3
20260901193246 98 311 2.0 3.0 0.00 0.00 0.00 45 1047.4
20260901192741 98 259 1.0 2.0 0.00 0.00 0.00 44 1047.5
20260901192237 98 250 2.0 3.0 0.00 0.00 0.00 44 1047.5
20260901191732 97 313 2.0 3.0 0.00 0.00 0.00 45 1047.6
20260901191228 97 265 2.0 2.0 0.00 0.00 0.00 43 1047.8
20260901190724 98 167 6.0 9.0 0.00 0.00 0.00 44 1047.8
20260901190223 97 283 2.0 3.0 0.00 0.00 0.00 45 1047.8
20260901185722 97 248 4.0 4.0 0.00 0.00 0.00 46 1047.7
20260901185221 97 260 1.0 1.0 0.00 0.00 0.00 45 1047.7
20260901184717 98 284 1.0 2.0 0.00 0.00 0.00 43 1047.6
20260901184212 97 268 1.0 1.0 0.00 0.00 0.00 46 1047.8
20260901183708 96 275 1.0 2.0 0.00 0.00 0.00 47 1047.8
20260901183207 96 292 1.0 1.0 0.00 0.00 0.00 47 1048.2
20260901182703 97 263 2.0 2.0 0.00 0.00 0.00 46 1048.0
20260901182202 96 262 3.0 3.0 0.00 0.00 0.00 47 1047.9
20260901181658 96 288 2.0 3.0 0.00 0.00 0.00 47 1048.0
20260901181158 96 299 2.0 3.0 0.00 0.00 0.00 46 1048.0
20260901180658 96 272 4.0 4.0 0.00 0.00 0.00 46 1048.2
20260901180157 96 272 1.0 2.0 0.00 0.00 0.00 49 1048.2
20260901175656 96 273 1.0 1.0 0.00 0.00 0.00 48 1047.9
20260901175156 96 305 1.0 2.0 0.00 0.00 0.00 48 1048.1
20260901174652 96 285 1.0 1.0 0.00 0.00 0.00 52 1048.1
20260901174148 95 281 0.0 0.0 0.00 0.00 0.00 52 1048.0
20260901173643 96 232 2.0 3.0 0.00 0.00 0.00 49 1048.2
20260901173138 96 288 1.0 1.0 0.00 0.00 0.00 49 1048.3
20260901172634 95 276 1.0 1.0 0.00 0.00 0.00 48 1048.3
20260901172132 95 301 2.0 2.0 0.00 0.00 0.00 51 1048.5
20260901171631 96 274 2.0 2.0 0.00 0.00 0.00 48 1048.4
20260901171131 95 260 1.0 1.0 0.00 0.00 0.00 51 1048.5
20260901170631 95 260 1.0 1.0 0.00 0.00 0.00 52 1048.4